TimeEST,TemperatureF,Dew PointF,Humidity,Sea Level PressureIn,VisibilityMPH,Wind Direction,Wind SpeedMPH,Gust SpeedMPH,PrecipitationIn,Events,Conditions,WindDirDegrees,DateUTC
12:53 AM,39.9,27.0,60,29.87,10.0,SW,8.1,-,N/A,,Mostly Cloudy,230,2011-12-28 05:53:00
1:53 AM,39.9,30.0,68,29.89,10.0,WSW,13.8,-,N/A,,Mostly Cloudy,240,2011-12-28 06:53:00
2:53 AM,37.9,30.9,76,29.91,10.0,SSW,5.8,-,N/A,,Clear,210,2011-12-28 07:53:00
3:53 AM,37.0,30.9,79,29.92,10.0,WSW,5.8,-,N/A,,Clear,250,2011-12-28 08:53:00
4:53 AM,35.1,28.0,76,29.94,10.0,SSE,6.9,-,N/A,,Clear,160,2011-12-28 09:53:00
5:53 AM,36.0,28.0,73,29.96,10.0,West,3.5,-,N/A,,Clear,260,2011-12-28 10:53:00
6:53 AM,34.0,27.0,75,29.98,10.0,Calm,Calm,-,N/A,,Clear,0,2011-12-28 11:53:00
7:53 AM,35.1,27.0,72,30.00,10.0,Calm,Calm,-,N/A,,Clear,0,2011-12-28 12:53:00
8:53 AM,37.0,28.0,70,30.03,10.0,WSW,6.9,-,N/A,,Clear,250,2011-12-28 13:53:00
9:53 AM,39.9,28.9,65,30.06,10.0,West,3.5,-,N/A,,Clear,270,2011-12-28 14:53:00
10:53 AM,44.1,28.0,53,30.07,10.0,ESE,3.5,-,N/A,,Clear,120,2011-12-28 15:53:00
11:53 AM,46.9,26.1,44,30.05,10.0,South,4.6,-,N/A,,Clear,170,2011-12-28 16:53:00
12:53 PM,50.0,24.1,36,30.03,10.0,WNW,5.8,-,N/A,,Clear,300,2011-12-28 17:53:00
1:53 PM,51.1,24.1,35,30.01,10.0,West,5.8,-,N/A,,Clear,280,2011-12-28 18:53:00
2:53 PM,50.0,24.1,36,30.01,10.0,WSW,6.9,-,N/A,,Clear,240,2011-12-28 19:53:00
3:53 PM,51.1,24.1,35,30.02,10.0,SSW,6.9,-,N/A,,Clear,210,2011-12-28 20:53:00
4:53 PM,50.0,25.0,38,30.04,10.0,SW,6.9,-,N/A,,Clear,220,2011-12-28 21:53:00
6:53 PM,45.0,26.1,48,30.06,10.0,SSW,3.5,-,N/A,,Clear,210,2011-12-28 23:53:00
7:53 PM,44.1,27.0,51,30.08,10.0,South,3.5,-,N/A,,Clear,190,2011-12-29 00:53:00
8:53 PM,42.1,27.0,55,30.08,10.0,Calm,Calm,-,N/A,,Clear,0,2011-12-29 01:53:00
9:53 PM,39.0,28.0,65,30.09,10.0,Calm,Calm,-,N/A,,Clear,0,2011-12-29 02:53:00
10:53 PM,37.0,28.0,70,30.09,10.0,Calm,Calm,-,N/A,,Clear,0,2011-12-29 03:53:00
11:53 PM,37.0,28.0,70,30.06,10.0,Calm,Calm,-,N/A,,Clear,0,2011-12-29 04:53:00